Regional Weather Roundup
Issued by NWS

Home | Current Version | Previous Version | Graphics & Text | Print | Product List | Glossary Off
Versions: 1 2 3 4 5 6 7 8 9 10 11 12 13 14 15 16 17 18 19 20 21 22 23 24 25 26 27 28 29 30 31 32 33 34 35 36 37 38 39 40 41 42 43 44 45 46 47 48 49 50

000
ASUS45 KCYS 051910
RWRWY

WYOMING REGIONAL WEATHER ROUNDUP
NATIONAL WEATHER SERVICE CHEYENNE WY
100 PM MDT TUE MAY 05 2015

NOTE:  "FAIR" INDICATES FEW OR NO CLOUDS BELOW 12,000 FEET
WITH NO SIGNIFICANT WEATHER AND/OR OBSTRUCTIONS TO VISIBILITY.

WYZ001-052000-
YELLOWSTONE NATIONAL PARK

CITY           SKY/WX    TMP DP  RH WIND       PRES   REMARKS
LK YELLOWSTONE   N/A     53  32  44 VRB6      29.97F
W YELLOWSTONE  NOT AVBL

$$
WYZ002>013-054>058-071-098>099-052000-
NORTHERN WYOMING

CITY           SKY/WX    TMP DP  RH WIND       PRES   REMARKS
JACKSON        SUNNY     63  36  36 CALM      29.89F
CODY           FAIR      70  36  28 SW7       29.81F
GREYBULL       FAIR      76  39  26 VRB7      29.74F
WORLAND        FAIR      74  42  31 W7        29.75F
SHERIDAN       FAIR      72  46  39 E15G23    29.79F
BUFFALO        FAIR      68  44  42 SE17G23   29.85F
GILLETTE       FAIR      63  47  55 S22G28    29.86F
HULETT         FAIR      72  46  40 SW12G18   29.87F
NEWCASTLE      FAIR      63  45  51 S20G28    29.91F

$$
WYZ014>020-022>026-101>103-052000-
CENTRAL WYOMING

CITY           SKY/WX    TMP DP  RH WIND       PRES   REMARKS
BIG PINEY      FAIR      62  36  37 NW15      29.92F
PINEDALE       MOCLDY    59  32  36 NW5       29.91F
DUBOIS         MOCLDY    59  32  36 N8        29.89F
LANDER         FAIR      62  40  44 CALM      29.83F
RIVERTON       FAIR      66  38  35 E7        29.83F
CASPER         FAIR      63  44  50 VRB6      29.85F
DOUGLAS        FAIR      63  46  54 SE22G32   29.88F

$$
WYZ021-027>030-104>119-052000-
SOUTHERN WYOMING

CITY           SKY/WX    TMP DP  RH WIND       PRES   REMARKS
EVANSTON       CLOUDY    59  41  51 W8        29.91F
KEMMERER       MOCLDY    55  34  44 W10       29.92F
FORT BRIDGER   FAIR      61  42  50 NE7       29.93F THUNDER
ROCK SPRINGS   FAIR      62  34  35 NW8       29.88F
DIXON          FAIR      65  38  36 N8        29.87F
RAWLINS        FAIR      62  35  36 VRB5      29.89F
SARATOGA       FAIR      61  41  48 N9        29.89F
LARAMIE        FAIR      55  42  61 SE26G35   29.90F
CHEYENNE       LGT RAIN  47  46  97 S12       29.95F VSB 1/2
TORRINGTON     CLOUDY    62  47  57 SE16G24   29.91F
PINE BLUFFS    CLOUDY    52  46  82 SE15      29.96F

$$



USA.gov is the U.S. government's official web portal to all federal, state and local government web resources and services.